| time (UTC) | temp C | wind direction | speed KPH | gust KPH | rain 1hr cm | rain 24hr cm | rain mn cm | humidity % | barometer mb |
| 20260504004410 | 27 | 247 | 1.6 | 3.2 | 0.00 | 0.00 | 0.00 | 43 | 1016.8 |
| 20260504001410 | 26 | 237 | 0.0 | 1.6 | 0.00 | 0.00 | 0.00 | 47 | 1016.8 |
| 20260503234405 | 26 | 205 | 0.0 | 0.0 | 0.00 | 0.00 | 0.00 | 47 | 1017.2 |
| 20260503231405 | 26 | 271 | 1.6 | 1.6 | 0.00 | 0.00 | 0.00 | 47 | 1017.6 |
| 20260503224402 | 27 | 192 | 3.2 | 3.2 | 0.00 | 0.00 | 0.00 | 44 | 1018.4 |
| 20260503221400 | 28 | 260 | 3.2 | 4.8 | 0.00 | 0.00 | 0.00 | 42 | 1018.5 |
| 20260503214358 | 27 | 236 | 3.2 | 4.8 | 0.00 | 0.00 | 0.00 | 43 | 1018.8 |
| 20260503211353 | 27 | 214 | 3.2 | 3.2 | 0.00 | 0.00 | 0.00 | 43 | 1019.2 |
| 20260503204349 | 28 | 240 | 1.6 | 3.2 | 0.00 | 0.00 | 0.00 | 43 | 1019.5 |
| 20260503201345 | 27 | 242 | 4.8 | 8.0 | 0.00 | 0.00 | 0.00 | 44 | 1019.9 |
| 20260503194343 | 27 | 231 | 4.8 | 4.8 | 0.00 | 0.00 | 0.00 | 45 | 1020.1 |
| 20260503191338 | 25 | 209 | 1.6 | 3.2 | 0.00 | 0.00 | 0.00 | 52 | 1020.6 |
| 20260503184338 | 24 | 262 | 4.8 | 4.8 | 0.00 | 0.00 | 0.00 | 54 | 1020.7 |
| 20260503181333 | 23 | 229 | 1.6 | 3.2 | 0.00 | 0.00 | 0.00 | 57 | 1021.0 |
| 20260503174333 | 22 | 254 | 3.2 | 3.2 | 0.00 | 0.00 | 0.00 | 59 | 1021.4 |
| 20260503171329 | 22 | 217 | 1.6 | 1.6 | 0.00 | 0.00 | 0.00 | 59 | 1021.4 |
| 20260503131319 | 10 | 203 | 0.0 | 0.0 | 0.00 | 0.00 | 0.00 | 98 | 1021.9 |
| 20260503081254 | 13 | 198 | 0.0 | 0.0 | 0.00 | 0.00 | 0.00 | 81 | 1022.0 |
| 20260503071249 | 16 | 206 | 0.0 | 0.0 | 0.00 | 0.00 | 0.00 | 68 | 1022.0 |
| 20260503054240 | 18 | 216 | 0.0 | 0.0 | 0.00 | 0.00 | 0.00 | 57 | 1021.7 |
| 20260503051239 | 18 | 232 | 1.6 | 1.6 | 0.00 | 0.00 | 0.00 | 57 | 1021.6 |
| 20260503044238 | 18 | 209 | 0.0 | 0.0 | 0.00 | 0.00 | 0.00 | 54 | 1021.6 |
| 20260503041237 | 19 | 210 | 0.0 | 0.0 | 0.00 | 0.00 | 0.00 | 56 | 1021.2 |
| 20260503034238 | 20 | 217 | 0.0 | 0.0 | 0.00 | 0.00 | 0.00 | 59 | 1020.6 |
| 20260503031235 | 20 | 231 | 1.6 | 1.6 | 0.00 | 0.00 | 0.00 | 61 | 1020.6 |
| 20260503024232 | 21 | 233 | 1.6 | 1.6 | 0.00 | 0.00 | 0.00 | 59 | 1020.2 |
| 20260503021232 | 22 | 224 | 0.0 | 0.0 | 0.00 | 0.00 | 0.00 | 60 | 1019.5 |
| 20260503014232 | 22 | 223 | 0.0 | 1.6 | 0.00 | 0.00 | 0.00 | 57 | 1020.0 |
| 20260503011232 | 23 | 206 | 0.0 | 0.0 | 0.00 | 0.00 | 0.00 | 55 | 1020.0 |